| time (UTC) | temp F | wind direction | speed MPH | gust MPH | rain 1hr in | rain 24hr in | rain mn in | humidity % | barometer mb |
| 20260506091016 | 46 | 24 | 2.0 | 3.0 | 0.00 | 0.00 | 0.00 | 89 | 1018.9 |
| 20260506090514 | 46 | 41 | 2.0 | 3.0 | 0.00 | 0.00 | 0.00 | 88 | 1019.0 |
| 20260506090010 | 47 | 3 | 1.0 | 2.0 | 0.00 | 0.00 | 0.00 | 87 | 1019.1 |
| 20260506085507 | 47 | 13 | 1.0 | 2.0 | 0.00 | 0.00 | 0.00 | 88 | 1019.2 |
| 20260506085003 | 46 | 23 | 2.0 | 2.0 | 0.00 | 0.00 | 0.00 | 89 | 1019.3 |
| 20260506084500 | 46 | 13 | 1.0 | 3.0 | 0.00 | 0.00 | 0.00 | 87 | 1019.1 |
| 20260506083956 | 47 | 38 | 0.0 | 2.0 | 0.00 | 0.00 | 0.00 | 87 | 1019.0 |
| 20260506083453 | 47 | 100 | 1.0 | 2.0 | 0.00 | 0.00 | 0.00 | 88 | 1019.1 |
| 20260506082951 | 47 | 11 | 2.0 | 3.0 | 0.00 | 0.00 | 0.00 | 88 | 1019.1 |
| 20260506082448 | 46 | 23 | 0.0 | 2.0 | 0.00 | 0.00 | 0.00 | 89 | 1019.2 |
| 20260506081943 | 46 | 30 | 1.0 | 3.0 | 0.00 | 0.00 | 0.00 | 88 | 1019.1 |
| 20260506081442 | 47 | 12 | 2.0 | 2.0 | 0.00 | 0.00 | 0.00 | 88 | 1019.1 |
| 20260506080939 | 47 | 18 | 2.0 | 3.0 | 0.00 | 0.00 | 0.00 | 88 | 1019.1 |
| 20260506080436 | 47 | 26 | 2.0 | 2.0 | 0.00 | 0.00 | 0.00 | 88 | 1019.1 |
| 20260506073420 | 47 | 335 | 1.0 | 4.0 | 0.00 | 0.00 | 0.00 | 87 | 1018.9 |
| 20260506072917 | 47 | 15 | 2.0 | 2.0 | 0.00 | 0.00 | 0.00 | 87 | 1018.8 |
| 20260506072414 | 47 | 26 | 2.0 | 3.0 | 0.00 | 0.00 | 0.00 | 86 | 1018.9 |
| 20260506071912 | 48 | 17 | 2.0 | 2.0 | 0.00 | 0.00 | 0.00 | 86 | 1018.7 |
| 20260506071410 | 48 | 33 | 2.0 | 2.0 | 0.00 | 0.00 | 0.00 | 87 | 1018.8 |
| 20260506070906 | 47 | 21 | 1.0 | 2.0 | 0.00 | 0.00 | 0.00 | 87 | 1018.4 |
| 20260506070403 | 47 | 11 | 1.0 | 2.0 | 0.00 | 0.00 | 0.00 | 87 | 1018.7 |
| 20260506062340 | 47 | 63 | 1.0 | 1.0 | 0.00 | 0.04 | 0.04 | 89 | 1018.3 |
| 20260506061836 | 47 | 42 | 2.0 | 2.0 | 0.00 | 0.04 | 0.04 | 88 | 1018.2 |
| 20260506061333 | 47 | 55 | 0.0 | 0.0 | 0.00 | 0.04 | 0.04 | 89 | 1018.3 |
| 20260506060831 | 47 | 130 | 0.0 | 0.0 | 0.00 | 0.04 | 0.04 | 89 | 1018.0 |
| 20260506060329 | 47 | 330 | 1.0 | 2.0 | 0.00 | 0.04 | 0.04 | 89 | 1018.1 |
| 20260506051300 | 48 | 36 | 0.0 | 2.0 | 0.00 | 0.04 | 0.04 | 88 | 1017.7 |
| 20260506050758 | 48 | 44 | 0.0 | 0.0 | 0.00 | 0.04 | 0.04 | 88 | 1017.5 |
| 20260506050256 | 48 | 66 | 0.0 | 0.0 | 0.00 | 0.04 | 0.04 | 87 | 1017.5 |
| 20260506044746 | 49 | 53 | 0.0 | 1.0 | 0.00 | 0.04 | 0.04 | 86 | 1017.4 |
| 20260506044244 | 49 | 122 | 0.0 | 2.0 | 0.00 | 0.04 | 0.04 | 85 | 1017.3 |
| 20260506043741 | 49 | 14 | 2.0 | 3.0 | 0.00 | 0.04 | 0.04 | 85 | 1017.3 |
| 20260506043238 | 48 | 10 | 2.0 | 2.0 | 0.00 | 0.04 | 0.04 | 87 | 1017.3 |
| 20260506042737 | 48 | 5 | 0.0 | 1.0 | 0.00 | 0.04 | 0.04 | 87 | 1017.2 |
| 20260506042235 | 49 | 246 | 0.0 | 1.0 | 0.00 | 0.04 | 0.04 | 86 | 1017.2 |
| 20260506041733 | 49 | 280 | 0.0 | 0.0 | 0.00 | 0.04 | 0.04 | 86 | 1017.2 |
| 20260506041230 | 49 | 279 | 0.0 | 0.0 | 0.00 | 0.04 | 0.04 | 85 | 1017.0 |
| 20260506040727 | 49 | 235 | 0.0 | 1.0 | 0.00 | 0.04 | 0.04 | 85 | 1016.9 |
| 20260506040224 | 49 | 63 | 0.0 | 1.0 | 0.00 | 0.04 | 0.04 | 85 | 1016.9 |
| 20260506035721 | 50 | 38 | 0.0 | 0.0 | 0.00 | 0.04 | 0.04 | 84 | 1016.7 |
| 20260506035218 | 50 | 42 | 0.0 | 0.0 | 0.00 | 0.04 | 0.04 | 83 | 1017.0 |
| 20260506034714 | 50 | 338 | 0.0 | 2.0 | 0.00 | 0.04 | 0.04 | 83 | 1016.6 |
| 20260506034212 | 50 | 17 | 0.0 | 0.0 | 0.00 | 0.04 | 0.04 | 83 | 1016.7 |
| 20260506033709 | 50 | 27 | 3.0 | 4.0 | 0.00 | 0.04 | 0.04 | 82 | 1016.7 |
| 20260506033206 | 51 | 212 | 0.0 | 1.0 | 0.00 | 0.04 | 0.04 | 82 | 1016.5 |
| 20260506032703 | 51 | 333 | 1.0 | 2.0 | 0.00 | 0.04 | 0.04 | 82 | 1016.5 |
| 20260506032200 | 51 | 29 | 0.0 | 1.0 | 0.00 | 0.04 | 0.04 | 81 | 1016.5 |
| 20260506031656 | 51 | 326 | 0.0 | 1.0 | 0.00 | 0.04 | 0.04 | 81 | 1016.4 |
| 20260506031154 | 52 | 22 | 0.0 | 1.0 | 0.00 | 0.04 | 0.04 | 80 | 1016.3 |
| 20260506030652 | 52 | 22 | 0.0 | 0.0 | 0.00 | 0.04 | 0.04 | 79 | 1016.2 |
| 20260506030149 | 52 | 32 | 0.0 | 1.0 | 0.00 | 0.04 | 0.04 | 79 | 1016.1 |
| 20260506025646 | 53 | 336 | 0.0 | 0.0 | 0.00 | 0.04 | 0.04 | 78 | 1016.1 |
| 20260506025142 | 53 | 49 | 0.0 | 1.0 | 0.00 | 0.04 | 0.04 | 77 | 1016.0 |
| 20260506024640 | 54 | 232 | 0.0 | 1.0 | 0.00 | 0.04 | 0.04 | 76 | 1016.2 |
| 20260506024135 | 55 | 246 | 0.0 | 0.0 | 0.00 | 0.04 | 0.04 | 73 | 1016.1 |
| 20260506023632 | 57 | 309 | 0.0 | 1.0 | 0.00 | 0.04 | 0.04 | 69 | 1016.0 |
| 20260506023129 | 57 | 17 | 2.0 | 4.0 | 0.00 | 0.04 | 0.04 | 64 | 1015.9 |
| 20260506022627 | 57 | 60 | 0.0 | 2.0 | 0.00 | 0.04 | 0.04 | 66 | 1015.9 |
| 20260506022124 | 58 | 7 | 2.0 | 4.0 | 0.00 | 0.04 | 0.04 | 64 | 1015.7 |
| 20260506021622 | 58 | 69 | 0.0 | 0.0 | 0.00 | 0.04 | 0.04 | 66 | 1015.7 |
| 20260506021119 | 59 | 50 | 0.0 | 2.0 | 0.00 | 0.04 | 0.04 | 63 | 1015.5 |
| 20260506020616 | 60 | 69 | 0.0 | 1.0 | 0.00 | 0.04 | 0.04 | 61 | 1015.6 |
| 20260506020113 | 60 | 73 | 2.0 | 3.0 | 0.00 | 0.04 | 0.04 | 60 | 1015.6 |
| 20260506015611 | 61 | 51 | 1.0 | 3.0 | 0.00 | 0.04 | 0.04 | 60 | 1015.6 |
| 20260506015107 | 61 | 104 | 0.0 | 3.0 | 0.00 | 0.04 | 0.04 | 59 | 1015.5 |
| 20260506014605 | 61 | 36 | 2.0 | 3.0 | 0.00 | 0.04 | 0.04 | 57 | 1015.5 |
| 20260506014100 | 61 | 98 | 3.0 | 4.0 | 0.00 | 0.04 | 0.04 | 56 | 1015.5 |
| 20260506013559 | 61 | 31 | 4.0 | 4.0 | 0.00 | 0.04 | 0.04 | 58 | 1015.3 |
| 20260506013055 | 61 | 340 | 1.0 | 5.0 | 0.00 | 0.04 | 0.04 | 56 | 1015.4 |
| 20260506012551 | 61 | 29 | 3.0 | 4.0 | 0.00 | 0.04 | 0.04 | 57 | 1015.5 |
| 20260506012048 | 61 | 50 | 0.0 | 1.0 | 0.00 | 0.04 | 0.04 | 56 | 1015.5 |
| 20260506011546 | 61 | 295 | 2.0 | 4.0 | 0.00 | 0.04 | 0.04 | 56 | 1015.3 |
| 20260506011042 | 61 | 0 | 2.0 | 7.0 | 0.00 | 0.04 | 0.04 | 55 | 1015.5 |
| 20260506010542 | 62 | 309 | 2.0 | 5.0 | 0.00 | 0.04 | 0.04 | 53 | 1015.6 |
| 20260506010038 | 62 | 317 | 4.0 | 5.0 | 0.00 | 0.04 | 0.04 | 55 | 1015.6 |
| 20260506005535 | 62 | 23 | 9.0 | 9.0 | 0.00 | 0.04 | 0.04 | 54 | 1015.6 |
| 20260506005031 | 62 | 13 | 4.0 | 6.0 | 0.00 | 0.04 | 0.04 | 55 | 1015.4 |
| 20260506004529 | 62 | 106 | 2.0 | 6.0 | 0.00 | 0.04 | 0.04 | 56 | 1015.3 |
| 20260506004025 | 63 | 119 | 3.0 | 3.0 | 0.00 | 0.04 | 0.04 | 56 | 1015.4 |
| 20260506003521 | 63 | 37 | 2.0 | 3.0 | 0.00 | 0.04 | 0.04 | 58 | 1015.4 |
| 20260506003018 | 62 | 71 | 2.0 | 4.0 | 0.00 | 0.04 | 0.04 | 58 | 1015.6 |
| 20260506002514 | 62 | 51 | 3.0 | 3.0 | 0.00 | 0.04 | 0.04 | 59 | 1015.6 |
| 20260506002009 | 62 | 60 | 0.0 | 3.0 | 0.00 | 0.04 | 0.04 | 59 | 1015.6 |
| 20260506001506 | 62 | 43 | 2.0 | 4.0 | 0.00 | 0.04 | 0.04 | 59 | 1015.6 |
| 20260506001004 | 62 | 87 | 2.0 | 4.0 | 0.00 | 0.04 | 0.04 | 59 | 1015.6 |
| 20260506000501 | 61 | 65 | 1.0 | 4.0 | 0.00 | 0.04 | 0.04 | 59 | 1015.5 |
| 20260505235958 | 61 | 142 | 1.0 | 2.0 | 0.00 | 0.04 | 0.04 | 58 | 1015.6 |
| 20260505235456 | 61 | 98 | 0.0 | 3.0 | 0.00 | 0.04 | 0.04 | 59 | 1015.6 |
| 20260505234952 | 61 | 67 | 2.0 | 2.0 | 0.00 | 0.04 | 0.04 | 61 | 1015.7 |
| 20260505234450 | 61 | 96 | 1.0 | 2.0 | 0.00 | 0.04 | 0.04 | 60 | 1015.7 |
| 20260505233946 | 61 | 71 | 2.0 | 2.0 | 0.00 | 0.04 | 0.04 | 60 | 1015.7 |
| 20260505233444 | 60 | 89 | 0.0 | 3.0 | 0.00 | 0.04 | 0.04 | 61 | 1015.9 |
| 20260505232941 | 60 | 40 | 2.0 | 3.0 | 0.00 | 0.04 | 0.04 | 61 | 1015.6 |
| 20260505232439 | 60 | 10 | 4.0 | 4.0 | 0.00 | 0.04 | 0.04 | 61 | 1016.2 |
| 20260505231936 | 60 | 59 | 1.0 | 2.0 | 0.00 | 0.04 | 0.04 | 62 | 1015.9 |
| 20260505231433 | 60 | 39 | 0.0 | 2.0 | 0.00 | 0.04 | 0.04 | 58 | 1015.7 |
| 20260505230931 | 60 | 310 | 3.0 | 3.0 | 0.00 | 0.04 | 0.04 | 57 | 1016.1 |
| 20260505230429 | 60 | 300 | 2.0 | 5.0 | 0.00 | 0.04 | 0.04 | 57 | 1015.9 |
| 20260505225925 | 60 | 15 | 3.0 | 4.0 | 0.00 | 0.04 | 0.04 | 58 | 1015.9 |
| 20260505225422 | 60 | 10 | 0.0 | 2.0 | 0.00 | 0.04 | 0.04 | 60 | 1015.7 |
| 20260505224918 | 60 | 304 | 2.0 | 3.0 | 0.00 | 0.04 | 0.04 | 58 | 1015.9 |
| 20260505224415 | 60 | 306 | 4.0 | 5.0 | 0.00 | 0.04 | 0.04 | 57 | 1015.9 |
| 20260505223912 | 60 | 317 | 2.0 | 4.0 | 0.00 | 0.04 | 0.04 | 59 | 1015.7 |
| 20260505223409 | 60 | 310 | 2.0 | 3.0 | 0.00 | 0.04 | 0.04 | 59 | 1016.0 |
| 20260505222905 | 60 | 9 | 3.0 | 8.0 | 0.00 | 0.04 | 0.04 | 58 | 1015.9 |
| 20260505222402 | 60 | 334 | 2.0 | 4.0 | 0.00 | 0.04 | 0.04 | 59 | 1015.9 |
| 20260505221858 | 60 | 331 | 2.0 | 3.0 | 0.00 | 0.04 | 0.04 | 59 | 1015.9 |
| 20260505221355 | 60 | 12 | 2.0 | 2.0 | 0.00 | 0.04 | 0.04 | 58 | 1015.7 |
| 20260505220852 | 60 | 315 | 2.0 | 3.0 | 0.00 | 0.04 | 0.04 | 59 | 1015.7 |
| 20260505220349 | 60 | 353 | 2.0 | 4.0 | 0.00 | 0.04 | 0.04 | 59 | 1015.7 |
| 20260505215847 | 60 | 12 | 2.0 | 5.0 | 0.00 | 0.04 | 0.04 | 58 | 1015.9 |
| 20260505215345 | 60 | 319 | 3.0 | 6.0 | 0.00 | 0.04 | 0.04 | 59 | 1015.7 |
| 20260505214843 | 60 | 358 | 2.0 | 4.0 | 0.00 | 0.04 | 0.04 | 59 | 1015.7 |
| 20260505214340 | 60 | 347 | 2.0 | 3.0 | 0.00 | 0.04 | 0.04 | 59 | 1015.9 |
| 20260505213837 | 60 | 315 | 5.0 | 6.0 | 0.00 | 0.04 | 0.04 | 59 | 1016.0 |
| 20260505213335 | 60 | 277 | 2.0 | 6.0 | 0.00 | 0.04 | 0.04 | 59 | 1016.0 |
| 20260505212830 | 60 | 39 | 5.0 | 6.0 | 0.00 | 0.04 | 0.04 | 58 | 1016.0 |
| 20260505212328 | 61 | 345 | 1.0 | 3.0 | 0.00 | 0.04 | 0.04 | 57 | 1016.1 |
| 20260505211823 | 60 | 349 | 1.0 | 4.0 | 0.00 | 0.04 | 0.04 | 57 | 1015.7 |
| 20260505211322 | 60 | 9 | 3.0 | 6.0 | 0.00 | 0.04 | 0.04 | 59 | 1016.0 |
| 20260505210818 | 60 | 17 | 0.0 | 4.0 | 0.00 | 0.04 | 0.04 | 61 | 1015.9 |
| 20260505210315 | 60 | 11 | 2.0 | 4.0 | 0.00 | 0.04 | 0.04 | 61 | 1016.0 |
| 20260505205812 | 59 | 0 | 1.0 | 4.0 | 0.00 | 0.04 | 0.04 | 62 | 1015.7 |
| 20260505205310 | 59 | 7 | 0.0 | 4.0 | 0.00 | 0.04 | 0.04 | 62 | 1015.9 |
| 20260505204806 | 59 | 350 | 3.0 | 6.0 | 0.00 | 0.04 | 0.04 | 63 | 1015.7 |
| 20260505204304 | 59 | 29 | 2.0 | 4.0 | 0.00 | 0.04 | 0.04 | 63 | 1015.7 |
| 20260505203801 | 59 | 21 | 3.0 | 6.0 | 0.00 | 0.04 | 0.04 | 66 | 1015.7 |
| 20260505203258 | 59 | 312 | 2.0 | 4.0 | 0.00 | 0.04 | 0.04 | 63 | 1016.0 |
| 20260505202754 | 59 | 321 | 3.0 | 5.0 | 0.00 | 0.04 | 0.04 | 65 | 1016.0 |
| 20260505202250 | 59 | 320 | 3.0 | 8.0 | 0.00 | 0.04 | 0.04 | 67 | 1015.7 |
| 20260505201747 | 59 | 9 | 2.0 | 9.0 | 0.00 | 0.04 | 0.04 | 67 | 1015.7 |
| 20260505201245 | 60 | 331 | 3.0 | 6.0 | 0.00 | 0.04 | 0.04 | 66 | 1015.7 |
| 20260505200743 | 60 | 309 | 2.0 | 3.0 | 0.00 | 0.04 | 0.04 | 65 | 1015.7 |
| 20260505200240 | 60 | 296 | 2.0 | 8.0 | 0.00 | 0.04 | 0.04 | 67 | 1015.6 |
| 20260505195735 | 59 | 269 | 0.0 | 5.0 | 0.00 | 0.04 | 0.04 | 72 | 1015.7 |
| 20260505195233 | 60 | 299 | 6.0 | 7.0 | 0.00 | 0.04 | 0.04 | 69 | 1016.1 |
| 20260505194730 | 60 | 32 | 2.0 | 6.0 | 0.00 | 0.04 | 0.04 | 66 | 1015.9 |
| 20260505194226 | 60 | 290 | 5.0 | 8.0 | 0.00 | 0.04 | 0.04 | 71 | 1015.7 |
| 20260505193722 | 59 | 341 | 6.0 | 11.0 | 0.00 | 0.04 | 0.04 | 74 | 1015.9 |
| 20260505193219 | 61 | 10 | 7.0 | 8.0 | 0.00 | 0.04 | 0.04 | 68 | 1015.6 |
| 20260505192718 | 60 | 274 | 1.0 | 4.0 | 0.00 | 0.04 | 0.04 | 71 | 1016.1 |
| 20260505192215 | 60 | 350 | 2.0 | 7.0 | 0.00 | 0.04 | 0.04 | 75 | 1015.7 |
| 20260505191713 | 60 | 298 | 3.0 | 4.0 | 0.00 | 0.04 | 0.04 | 72 | 1015.6 |
| 20260505191212 | 59 | 306 | 2.0 | 5.0 | 0.00 | 0.04 | 0.04 | 78 | 1015.9 |
| 20260505190708 | 58 | 316 | 5.0 | 9.0 | 0.00 | 0.04 | 0.04 | 75 | 1015.7 |
| 20260505190207 | 57 | 21 | 2.0 | 5.0 | 0.00 | 0.04 | 0.04 | 82 | 1016.0 |
| 20260505185704 | 57 | 359 | 2.0 | 4.0 | 0.00 | 0.04 | 0.04 | 82 | 1015.9 |
| 20260505185200 | 56 | 126 | 2.0 | 2.0 | 0.00 | 0.04 | 0.04 | 83 | 1016.0 |
| 20260505184657 | 56 | 69 | 0.0 | 3.0 | 0.00 | 0.04 | 0.04 | 81 | 1016.1 |
| 20260505184154 | 56 | 98 | 1.0 | 2.0 | 0.00 | 0.04 | 0.04 | 82 | 1016.0 |
| 20260505183651 | 56 | 210 | 0.0 | 4.0 | 0.00 | 0.04 | 0.04 | 82 | 1015.7 |
| 20260505183148 | 56 | 128 | 3.0 | 4.0 | 0.00 | 0.04 | 0.04 | 85 | 1015.9 |
| 20260505182645 | 55 | 232 | 0.0 | 4.0 | 0.00 | 0.04 | 0.04 | 84 | 1015.7 |
| 20260505182142 | 55 | 180 | 2.0 | 5.0 | 0.00 | 0.04 | 0.04 | 85 | 1015.9 |
| 20260505181638 | 55 | 261 | 0.0 | 3.0 | 0.00 | 0.04 | 0.04 | 85 | 1015.9 |
| 20260505181136 | 55 | 273 | 2.0 | 3.0 | 0.00 | 0.04 | 0.04 | 84 | 1015.6 |
| 20260505180631 | 55 | 292 | 1.0 | 4.0 | 0.00 | 0.04 | 0.04 | 85 | 1015.9 |
| 20260505180129 | 55 | 142 | 1.0 | 4.0 | 0.00 | 0.04 | 0.04 | 84 | 1015.6 |
| 20260505175625 | 55 | 180 | 2.0 | 4.0 | 0.00 | 0.04 | 0.04 | 85 | 1015.5 |
| 20260505175122 | 56 | 229 | 5.0 | 5.0 | 0.00 | 0.04 | 0.04 | 87 | 1015.4 |
| 20260505174618 | 55 | 272 | 2.0 | 4.0 | 0.00 | 0.04 | 0.04 | 85 | 1015.6 |
| 20260505174114 | 55 | 225 | 0.0 | 4.0 | 0.00 | 0.04 | 0.04 | 86 | 1015.5 |
| 20260505173611 | 54 | 152 | 2.0 | 4.0 | 0.00 | 0.04 | 0.04 | 89 | 1015.3 |
| 20260505173108 | 54 | 181 | 2.0 | 3.0 | 0.00 | 0.04 | 0.04 | 88 | 1015.3 |
| 20260505172606 | 54 | 343 | 2.0 | 6.0 | 0.00 | 0.04 | 0.04 | 88 | 1015.4 |
| 20260505172102 | 54 | 319 | 2.0 | 3.0 | 0.00 | 0.04 | 0.04 | 89 | 1015.3 |
| 20260505171556 | 54 | 226 | 2.0 | 5.0 | 0.00 | 0.04 | 0.04 | 88 | 1015.4 |
| 20260505171054 | 54 | 231 | 2.0 | 2.0 | 0.00 | 0.04 | 0.04 | 90 | 1015.4 |
| 20260505170551 | 54 | 225 | 4.0 | 4.0 | 0.00 | 0.04 | 0.04 | 89 | 1015.4 |
| 20260505170047 | 54 | 182 | 2.0 | 3.0 | 0.00 | 0.04 | 0.04 | 91 | 1015.4 |
| 20260505165542 | 54 | 176 | 0.0 | 3.0 | 0.00 | 0.04 | 0.04 | 90 | 1015.1 |
| 20260505165038 | 54 | 251 | 1.0 | 2.0 | 0.00 | 0.04 | 0.04 | 90 | 1015.3 |
| 20260505164534 | 53 | 17 | 0.0 | 2.0 | 0.00 | 0.04 | 0.04 | 91 | 1015.2 |
| 20260505164032 | 54 | 241 | 2.0 | 3.0 | 0.00 | 0.04 | 0.04 | 90 | 1015.2 |
| 20260505163531 | 54 | 117 | 3.0 | 4.0 | 0.00 | 0.04 | 0.04 | 91 | 1015.1 |
| 20260505163027 | 53 | 229 | 0.0 | 2.0 | 0.00 | 0.04 | 0.04 | 91 | 1014.8 |
| 20260505162520 | 53 | 321 | 2.0 | 4.0 | 0.00 | 0.04 | 0.04 | 90 | 1015.0 |
| 20260505162018 | 53 | 128 | 0.0 | 1.0 | 0.00 | 0.04 | 0.04 | 93 | 1015.0 |
| 20260505161514 | 53 | 151 | 2.0 | 2.0 | 0.00 | 0.04 | 0.04 | 93 | 1014.9 |
| 20260505161011 | 53 | 239 | 2.0 | 2.0 | 0.00 | 0.04 | 0.04 | 93 | 1015.1 |
| 20260505160509 | 53 | 230 | 3.0 | 4.0 | 0.00 | 0.04 | 0.04 | 92 | 1015.1 |
| 20260505152946 | 53 | 243 | 0.0 | 0.0 | 0.00 | 0.04 | 0.04 | 93 | 1014.6 |
| 20260505152443 | 53 | 97 | 2.0 | 3.0 | 0.00 | 0.04 | 0.04 | 92 | 1014.7 |
| 20260505151943 | 53 | 115 | 2.0 | 2.0 | 0.00 | 0.04 | 0.04 | 92 | 1014.7 |
| 20260505151439 | 53 | 70 | 0.0 | 1.0 | 0.00 | 0.04 | 0.04 | 92 | 1014.8 |
| 20260505150937 | 53 | 123 | 0.0 | 2.0 | 0.00 | 0.04 | 0.04 | 92 | 1014.6 |
| 20260505150433 | 53 | 108 | 0.0 | 1.0 | 0.00 | 0.04 | 0.04 | 92 | 1014.6 |
| 20260505140404 | 51 | 76 | 0.0 | 1.0 | 0.00 | 0.04 | 0.04 | 95 | 1014.1 |
| 20260505124817 | 50 | 64 | 1.0 | 2.0 | 0.02 | 0.02 | 0.02 | 94 | 1013.7 |
| 20260505124314 | 50 | 30 | 2.0 | 3.0 | 0.02 | 0.02 | 0.02 | 93 | 1013.6 |
| 20260505123810 | 50 | 34 | 0.0 | 2.0 | 0.02 | 0.01 | 0.01 | 93 | 1013.6 |
| 20260505123307 | 50 | 45 | 2.0 | 2.0 | 0.02 | 0.01 | 0.01 | 93 | 1013.7 |
| 20260505122803 | 50 | 25 | 2.0 | 2.0 | 0.05 | 0.01 | 0.01 | 94 | 1013.7 |
| 20260505122301 | 50 | 89 | 0.0 | 1.0 | 0.00 | 0.00 | 0.00 | 93 | 1013.6 |
| 20260505121757 | 51 | 74 | 1.0 | 2.0 | 0.00 | 0.00 | 0.00 | 93 | 1013.6 |
| 20260505121254 | 51 | 77 | 0.0 | 1.0 | 0.00 | 0.00 | 0.00 | 93 | 1013.7 |
| 20260505120750 | 51 | 72 | 1.0 | 2.0 | 0.00 | 0.00 | 0.00 | 92 | 1013.6 |
| 20260505120246 | 51 | 64 | 1.0 | 1.0 | 0.00 | 0.00 | 0.00 | 92 | 1013.5 |
| 20260505115745 | 51 | 55 | 1.0 | 2.0 | 0.00 | 0.00 | 0.00 | 92 | 1013.7 |
| 20260505115243 | 51 | 92 | 2.0 | 2.0 | 0.00 | 0.00 | 0.00 | 91 | 1013.6 |
| 20260505114740 | 51 | 33 | 2.0 | 2.0 | 0.00 | 0.00 | 0.00 | 91 | 1013.7 |
| 20260505114236 | 51 | 34 | 2.0 | 2.0 | 0.00 | 0.00 | 0.00 | 91 | 1013.6 |
| 20260505113733 | 51 | 13 | 1.0 | 2.0 | 0.00 | 0.00 | 0.00 | 91 | 1013.6 |
| 20260505113229 | 51 | 357 | 1.0 | 2.0 | 0.00 | 0.00 | 0.00 | 91 | 1013.5 |
| 20260505112725 | 51 | 11 | 1.0 | 2.0 | 0.00 | 0.00 | 0.00 | 91 | 1013.5 |
| 20260505112223 | 51 | 27 | 1.0 | 2.0 | 0.00 | 0.00 | 0.00 | 91 | 1013.7 |
| 20260505111723 | 51 | 47 | 0.0 | 2.0 | 0.00 | 0.00 | 0.00 | 91 | 1013.5 |
| 20260505111219 | 51 | 5 | 2.0 | 2.0 | 0.00 | 0.00 | 0.00 | 91 | 1013.4 |
| 20260505110715 | 51 | 25 | 2.0 | 2.0 | 0.00 | 0.00 | 0.00 | 91 | 1013.5 |
| 20260505110213 | 51 | 14 | 2.0 | 2.0 | 0.00 | 0.00 | 0.00 | 92 | 1013.6 |
| 20260505102148 | 50 | 55 | 0.0 | 0.0 | 0.00 | 0.00 | 0.00 | 93 | 1013.5 |
| 20260505101647 | 50 | 71 | 0.0 | 1.0 | 0.00 | 0.00 | 0.00 | 93 | 1013.6 |
| 20260505101143 | 50 | 60 | 0.0 | 0.0 | 0.00 | 0.00 | 0.00 | 92 | 1013.7 |
| 20260505100639 | 50 | 80 | 0.0 | 1.0 | 0.00 | 0.00 | 0.00 | 92 | 1013.6 |
| 20260505100136 | 50 | 58 | 0.0 | 1.0 | 0.00 | 0.00 | 0.00 | 92 | 1013.9 |
| 20260505095632 | 50 | 73 | 0.0 | 1.0 | 0.00 | 0.00 | 0.00 | 92 | 1013.9 |
| 20260505095129 | 50 | 22 | 0.0 | 0.0 | 0.00 | 0.00 | 0.00 | 93 | 1013.7 |
| 20260505094625 | 50 | 60 | 0.0 | 1.0 | 0.00 | 0.00 | 0.00 | 93 | 1013.7 |
| 20260505094122 | 50 | 25 | 0.0 | 1.0 | 0.00 | 0.00 | 0.00 | 92 | 1013.9 |
| 20260505093618 | 50 | 89 | 1.0 | 2.0 | 0.00 | 0.00 | 0.00 | 93 | 1013.5 |
| 20260505093115 | 50 | 55 | 1.0 | 2.0 | 0.00 | 0.00 | 0.00 | 92 | 1013.9 |
| 20260505092612 | 50 | 73 | 0.0 | 1.0 | 0.00 | 0.00 | 0.00 | 92 | 1014.0 |
| 20260505092112 | 50 | 65 | 1.0 | 2.0 | 0.00 | 0.00 | 0.00 | 92 | 1014.0 |
| 20260505091607 | 50 | 59 | 0.0 | 0.0 | 0.00 | 0.00 | 0.00 | 92 | 1014.1 |